SV2BBO-2 Thessaloniki GR current weather conditions

sailwx.info

Wind from 005

Air temperature 13.3° C
Dewpoint 5.5° C

Last reported at 2014-Nov-29 02:46 UTC.
Time now 2014-Nov-29 03:43 UTC

Location: N 40°38' E 022°57'.
View on Google Maps.

See reports from other nearby stations

  
Tides and Currents Weather Stations Pressure Air Temp Water Temp Dewpoint Dewpoint Depression Visibility Wind Speed Wind Dir Waves Ship Positions
date/time (UTC)wind fromknots sea level pressurealtimeterstation pressurevisibilityair tempwater tempwave heightnotes
2014-Nov-29 02:46 005 13.3
2014-Nov-29 02:27 005 13.3
2014-Nov-29 02:17 005 13.3
2014-Nov-29 01:57 357 13.3
2014-Nov-29 01:47 357 13.3
2014-Nov-29 01:27 357 13.3
2014-Nov-29 01:17 357 13.3
2014-Nov-29 00:57 357 13.3
2014-Nov-29 00:47 357 13.3
2014-Nov-29 00:27 357 13.3
2014-Nov-29 00:17 357 13.3
2014-Nov-28 23:57 336 13.3
2014-Nov-28 23:47 336 13.3
2014-Nov-28 23:27 336 13.3
2014-Nov-28 23:17 335 12.8
2014-Nov-28 22:57 335 12.8
2014-Nov-28 22:47 335 13.3
2014-Nov-28 22:27 335 13.3
2014-Nov-28 22:17 336 13.3
2014-Nov-28 21:57 290 12.8
2014-Nov-28 21:47 288 13.3
2014-Nov-28 21:27 031 13.3
2014-Nov-28 21:17 293 13.3
2014-Nov-28 20:57 293 13.3
2014-Nov-28 20:47 293 13.3
2014-Nov-28 20:27 292 13.3
2014-Nov-28 20:17 288 0 gusting 3 13.3
2014-Nov-28 19:57 139 13.3
2014-Nov-28 19:47 084 13.9
2014-Nov-28 19:27 078 13.9
2014-Nov-28 19:17 078 13.9
2014-Nov-28 18:57 090 13.9
2014-Nov-28 18:47 090 13.9
2014-Nov-28 18:27 089 13.9
2014-Nov-28 18:17 087 13.3
2014-Nov-28 17:57 088 13.9
2014-Nov-28 17:47 078 0 gusting 3 13.9
2014-Nov-28 17:27 030 13.3
2014-Nov-28 17:17 024 13.3
2014-Nov-28 16:57 024 13.3
2014-Nov-28 16:47 026 13.3
2014-Nov-28 16:27 025 13.3
2014-Nov-28 16:17 025 13.3
2014-Nov-28 15:57 025 13.3
2014-Nov-28 15:47 025 13.3
2014-Nov-28 15:27 021 12.8
2014-Nov-28 15:17 022 12.8
2014-Nov-28 14:57 008 12.8
2014-Nov-28 14:47 239 12.8
2014-Nov-28 14:27 240 12.8
2014-Nov-28 14:17 224 12.8
2014-Nov-28 13:57 221 12.8
2014-Nov-28 13:47 221 12.8
2014-Nov-28 13:27 220 12.8
2014-Nov-28 13:17 220 12.8
2014-Nov-28 12:57 209 0 gusting 2 12.8
2014-Nov-28 12:47 310 12.8
2014-Nov-28 12:27 297 12.8
2014-Nov-28 12:17 262 12.8
2014-Nov-28 11:57 297 12.8
2014-Nov-28 11:47 306 12.8
2014-Nov-28 11:27 314 13.3
2014-Nov-28 11:17 328 13.3
2014-Nov-28 10:57 329 13.3
2014-Nov-28 10:47 329 12.8
2014-Nov-28 10:27 328 12.2
2014-Nov-28 10:17 328 12.2
2014-Nov-28 09:57 318 12.2
2014-Nov-28 09:47 312 12.2
2014-Nov-28 09:27 351 12.2
2014-Nov-28 09:17 225 12.2
2014-Nov-28 08:57 225 12.2
2014-Nov-28 08:47 225 0 12.2
2014-Nov-28 08:27 085 12.2
2014-Nov-28 08:17 110 12.8
2014-Nov-28 07:57 199 12.2
2014-Nov-28 07:47 199 12.2
2014-Nov-28 07:27 199 11.7
2014-Nov-28 07:17 199 11.7
2014-Nov-28 06:57 100 11.7
2014-Nov-28 06:47 101 11.7
2014-Nov-28 05:47 100 11.1
2014-Nov-28 05:27 099 11.1
2014-Nov-28 05:17 100 11.1
2014-Nov-28 04:57 094 11.1
2014-Nov-28 04:47 089 11.1
2014-Nov-28 04:27 123 11.1
2014-Nov-28 04:17 125 11.1
2014-Nov-28 03:57 125 11.1
2014-Nov-28 03:47 125 11.1
2014-Nov-28 03:27 140 11.1
2014-Nov-28 03:17 120 11.1
2014-Nov-28 02:57 113 11.1
2014-Nov-28 02:47 101 11.1
2014-Nov-28 02:27 049 11.1
2014-Nov-28 02:17 049 11.1
2014-Nov-28 01:57 049 10.6
2014-Nov-28 01:47 049 10.6
2014-Nov-28 01:27 049 10.6
2014-Nov-28 01:17 049 10.6
2014-Nov-28 00:57 049 10.6
2014-Nov-28 00:47 049 10.6
2014-Nov-28 00:27 049 10.6
2014-Nov-28 00:17 049 2 10.0
2014-Nov-27 23:57 050 10.6
2014-Nov-27 23:47 050 10.0
2014-Nov-27 23:27 044 10.6
2014-Nov-27 23:17 042 10.6
2014-Nov-27 22:57 058 2 gusting 3 10.0
2014-Nov-27 22:47 047 10.0
2014-Nov-27 22:27 056 2 gusting 3 10.6
2014-Nov-27 22:17 123 11.1
2014-Nov-27 21:57 123 11.1
2014-Nov-27 21:47 123 10.6
2014-Nov-27 21:27 123 10.6
2014-Nov-27 21:17 123 10.6
2014-Nov-27 20:57 104 10.6
2014-Nov-27 20:47 046 10.0
2014-Nov-27 20:27 045 10.0
2014-Nov-27 20:17 055 1 gusting 3 10.0
2014-Nov-27 19:57 038 1 gusting 3 10.0
2014-Nov-27 19:47 028 10.0
2014-Nov-27 19:27 056 10.0
2014-Nov-27 19:17 056 10.0
2014-Nov-27 18:57 067 10.0
2014-Nov-27 18:47 049 10.0
2014-Nov-27 18:27 049 10.6
2014-Nov-27 18:17 049 10.6
2014-Nov-27 17:57 049 10.6
2014-Nov-27 17:47 049 10.6
2014-Nov-27 17:27 048 10.0
2014-Nov-27 17:17 048 10.0
2014-Nov-27 16:57 048 9.4
2014-Nov-27 16:47 054 2 gusting 3 9.4
2014-Nov-27 16:27 038 1 gusting 3 8.9
2014-Nov-27 16:17 047 2 gusting 5 8.9
2014-Nov-27 15:57 065 4 gusting 5 8.9
2014-Nov-27 15:47 061 4 gusting 6 8.9
2014-Nov-27 15:27 058 4 gusting 6 8.9
2014-Nov-27 15:17 054 4 gusting 5 8.9
2014-Nov-27 14:57 072 0 gusting 2 8.9
2014-Nov-27 14:47 045 0 gusting 3 9.4
2014-Nov-27 14:27 027 8.9
2014-Nov-27 14:17 064 2 gusting 3 8.9
2014-Nov-27 13:57 070 0 gusting 4 8.9
2014-Nov-27 13:47 031 4 gusting 5 8.9
2014-Nov-27 13:27 046 4 gusting 6 8.9
2014-Nov-27 13:17 051 3 gusting 5 8.9
2014-Nov-27 12:57 043 3 gusting 5 9.4
2014-Nov-27 12:47 062 2 gusting 4 9.4
2014-Nov-27 12:27 051 9.4
2014-Nov-27 12:17 034 9.4
2014-Nov-27 11:57 045 0 10.0
2014-Nov-27 11:47 031 10.0
2014-Nov-27 11:27 344 10.0
2014-Nov-27 11:17 048 10.0
2014-Nov-27 10:57 045 2 gusting 3 10.0
2014-Nov-27 10:47 060 2 gusting 3 9.4
2014-Nov-27 10:27 042 3 gusting 3 9.4
2014-Nov-27 10:17 059 5 gusting 5 9.4
2014-Nov-27 09:57 042 1 gusting 4 9.4
2014-Nov-27 09:47 049 3 gusting 5 9.4
2014-Nov-27 09:27 032 4 gusting 6 9.4
2014-Nov-27 09:17 10.0
2014-Nov-27 08:57 012 0 gusting 3 10.0
2014-Nov-27 08:47 353 0 gusting 2 10.0
2014-Nov-27 08:27 299 1 gusting 2 10.0
2014-Nov-27 08:17 307 10.0
2014-Nov-27 07:57 306 10.0
2014-Nov-27 07:47 357 9.4
2014-Nov-27 07:27 002 9.4
2014-Nov-27 07:17 021 3 gusting 3 9.4
2014-Nov-27 06:57 331 1 gusting 3 9.4
2014-Nov-27 06:47 020 8.9
2014-Nov-27 06:27 108 0 8.9
2014-Nov-27 06:17 119 0 9.4
2014-Nov-27 05:57 330 0 gusting 2 9.4
2014-Nov-27 05:47 061 9.4
2014-Nov-27 05:27 060 0 gusting 2 8.9
2014-Nov-27 05:17 036 3 gusting 5 8.9
2014-Nov-27 04:57 040 4 gusting 5 8.9
2014-Nov-27 04:47 039 8.9
2014-Nov-27 04:27 051 2 gusting 3 8.9
2014-Nov-27 04:17 042 1 gusting 3 8.9
2014-Nov-27 03:57 045 8.9
2014-Nov-27 03:47 045 8.9
2014-Nov-27 03:27 045 8.9
2014-Nov-27 03:17 045 1 gusting 3 8.9